Location: Newark
(25.0000°N, 73.5000°E)
Time: 09:55:33
(UTC+00:00)

RS-15 - Pass Details

Date: 26 February 2020
Orbit: 1898 x 2146 km, 64.8° (Epoch: 06 April)

Event Time Altitude Azimuth Distance (km) Brightness Sun altitude
Rises 22:17:42 0° 345° (NNW) 5,326 10.3 -44.5°
Reaches altitude 10° 22:21:48 10° 357° (N) 4,353 9.9 -43.6°
Maximum altitude 22:30:57 28° 53° (NE) 3,212 9.5 -41.5°
Drops below altitude 10° 22:40:19 10° 108° (ESE) 4,507 10.5 -39.4°
Sets 22:44:33 0° 119° (ESE) 5,544 11.0 -38.5°
